Weather in Zhavoronki

Russia / Moscow Oblast     55˚38′32″N   37˚05′59″E
temp.,
°C
wind,
m/s
gust,
m/s
humid.,
%
clouds,
%
prec.,
mm/h
press.,
hPa
HPBL,
m
17 january, sun
sun1700:00−19˚nnw4994100 0.4 1009460
03:00−21˚nnw3895100 0.4 1011374
06:00−24˚nnw389799 0.1 1012224
09:00−26˚nnw369898 0.1 1014130
12:00−22˚n369569 0.0 1016256
15:00−20˚nnw239683 0.0 1017207
18:00−23˚n239723 0.0 101827
21:00−24˚n129818 0.0 102020
18 january, mon
mon1800:00−24˚n12986 0.0 102020
03:00−25˚nnw00993 0.0 102020
06:00−24˚wnw119866 0.0 102020
09:00−24˚nnw229853 0.0 102120
12:00−19˚nnw019474 0.0 102080
15:00−18˚w119584 0.0 101922
18:00−21˚w119698 0.0 101920
21:00−20˚wnw119499 0.0 101920
19 january, tue
tue1900:00−20˚ssw1195100 0.0 101920
03:00−19˚wnw1196100 0.0 101820
06:00−19˚wnw1196100 0.0 101720
09:00−19˚nw1197100 0.0 101820
12:00−15˚nw1293100 0.0 1017189
15:00−14˚wnw1293100 0.1 1016243
18:00−15˚nnw2296100 0.1 101640
21:00−16˚nnw229798 0.2 101734
20 january, wed
wed2000:00−16˚nw229786 0.1 101734
03:00−17˚nw229784 0.1 101820
06:00−17˚wnw229785 0.1 101925
09:00−16˚wnw239786 0.1 101949
12:00−14˚w249585 0.0 1020165
15:00−12˚w249579 0.1 1020183
18:00−16˚wsw239720 0.0 102130
21:00−17˚wsw239710 0.0 102239
21 january, thu
thu2100:00−18˚sw23970 0.0 102261
03:00−18˚sw359616 0.0 102197
06:00−18˚ssw379398 0.0 1020158
09:00−15˚s399299 0.0 1018262
12:00−11˚ssw4994100 0.5 1015371
15:00−10˚ssw3794100 1.4 1014430
18:00−9˚s2596100 0.3 1014181
21:00−10˚ssw249697 0.4 101396